Volver al catálogo

STARLINK-4260

ActivoComunicacionesVLEO
NORAD 52986·PAYLOAD·🇺🇸 United States

Lanzado Jul 7, 2022 desde Cape Canaveral Space Force Station

Loading…

Próximos Pases (próximas 24 horas)

TLE

ActualizadoSource: CelesTrak SupGP

Época: Sep 14, 2026, 21:35 UTC

1 52986C 22076A   26257.89979167 -.00025578  00000+0 -73189-3 0  2571
2 52986  53.1572 310.2001 0001174  89.9029 242.2825 15.35408065    15

Sigue STARLINK-4260 en tiempo real con AllMySat

Download on the App Store